Location: Los Angeles
(34.0542°N, 118.2411°W)
Time: 05:15:37
(UTC-07:00)

Daily predictions for brighter satellites

Satellite Brightness Start Highest point End
(mag) Time Altitude Azimuth Time Altitude Azimuth Time Altitude Azimuth
Cosmos 1943 Rocket 4.1 00:37:57 23° NE 00:37:57 23° NE 00:40:03 10° NNE
Lacrosse 5 3.9 00:40:58 25° N 00:40:58 25° N 00:43:28 10° NNE
NOSS 3-1 (A) 4.1 00:44:10 10° NNW 00:51:05 73° N 00:51:05 73° N
ATLAS 2AS CENTAUR R/B 3.6 01:05:38 10° NNW 01:13:21 47° NE 01:14:24 44° ENE
Cosmos 2369 Rocket 4.3 01:36:21 18° NW 01:36:21 18° NW 01:39:39 10° NNW
Cosmos 2219 4.4 01:42:16 10° N 01:46:01 38° NNE 01:46:01 38° NNE
CZ-2C R/B 4.5 01:49:49 10° NNW 01:52:25 23° NW 01:52:25 23° NW
SeaSat 1 4.0 02:06:57 31° N 02:06:57 31° N 02:09:33 10° NNW
Cosmos 1943 Rocket 4.1 02:19:27 19° NW 02:19:27 19° NW 02:22:40 10° NNW
NPP 4.4 02:21:01 10° NNE 02:25:03 48° NE 02:25:03 48° NE
Resurs 1-4 Rocket 4.3 02:25:00 10° ENE 02:27:56 15° E 02:28:28 15° E
Cosmos 2233 Rocket 4.3 02:32:41 56° NNW 02:32:41 56° NNW 02:37:39 10° N
ARIANE 5 R/B 3.9 02:41:00 10° NE 02:45:27 30° E 02:45:27 30° E
ATLAS CENTAUR R/B 2.9 02:50:41 40° ENE 02:50:41 40° ENE 02:54:22 10° NE
Cosmos 1513 Rocket 4.5 02:57:30 66° ESE 02:57:50 68° E 03:03:51 10° NNE
Spot 4 Rocket 4.4 02:53:57 10° NNE 02:58:38 58° ENE 02:58:38 58° ENE
ATLAS 2AS CENTAUR R/B 4.0 02:57:07 10° NW 03:01:46 30° WNW 03:01:46 30° WNW
Cosmos 1072 Rocket 4.4 03:04:09 77° W 03:04:16 77° W 03:10:42 10° N
Cosmos 1656 4.0 03:04:27 57° ESE 03:04:32 58° ESE 03:10:06 10° NNE
Cosmos 2298 Rocket 4.3 03:04:16 10° N 03:09:32 64° ENE 03:10:01 60° ESE
Cosmos 1814 Rocket 4.1 03:09:57 75° ENE 03:09:57 75° ENE 03:15:03 10° NNE
IRS-1D 4.1 03:04:56 10° NNE 03:09:42 47° E 03:09:52 47° ESE
BREEZE-M DEB (TANK) 3.4 03:02:30 10° NW 03:09:20 52° N 03:09:20 52° N
Cosmos 1891 Rocket 4.2 03:13:27 78° S 03:13:55 89° E 03:20:01 10° N
Okean O Rocket 4.1 03:17:36 10° ENE 03:20:04 15° E 03:22:08 11° ESE
Cosmos 1697 Rocket 2.9 03:21:22 55° SE 03:22:07 60° ESE 03:27:41 10° NNE
CZ-2D R/B 2.7 03:16:52 10° NNE 03:22:11 53° E 03:23:19 45° SE
IRS-1C 4.4 03:18:32 10° N 03:23:29 53° WNW 03:23:29 53° WNW
Cosmos 2082 3.6 03:19:58 10° NNW 03:25:37 88° ENE 03:26:36 63° SSE
Cosmos 2034 Rocket 3.8 03:26:11 65° SW 03:27:00 75° W 03:33:14 10° N
SL-16 R/B 2.9 03:23:48 23° SE 03:27:39 62° ENE 03:33:43 10° N
Meteor 2-5 Rocket 3.7 03:23:04 10° NNW 03:28:56 75° W 03:29:34 67° SW
Cosmos 1980 Rocket 3.2 03:28:05 32° SE 03:29:45 39° ESE 03:34:58 10° NE
Cosmos 468 Rocket 4.4 03:37:08 47° WNW 03:37:08 47° WNW 03:42:05 10° N
Cosmos 2227 Rocket 2.1 03:31:47 10° NNW 03:37:25 68° WSW 03:37:55 65° SW
Cosmos 858 Rocket 4.4 03:32:31 10° NNW 03:37:47 87° WSW 03:38:44 61° S
Cosmos 2322 Rocket 4.5 03:37:06 10° SE 03:40:36 17° E 03:44:06 10° ENE
Cosmos-2242 4.2 03:39:48 30° SE 03:41:04 38° E 03:45:03 10° NNE
Cosmos 1408 Rocket 4.4 03:39:09 10° N 03:43:24 49° E 03:45:14 30° SE
Nadezhda 4 Rocket 4.0 03:38:38 10° N 03:44:50 83° E 03:48:11 30° S
Cosmos 1766 Rocket 4.5 03:40:52 10° N 03:45:06 46° E 03:47:19 25° SE
GEOS 3 Rocket 4.0 03:42:05 10° SE 03:47:14 64° NE 03:52:22 10° NNW
Cosmos 2150 Rocket 3.9 03:43:00 10° NNW 03:48:08 61° WSW 03:48:24 61° WSW
Cosmos 1766 3.3 03:49:07 69° NNW 03:49:07 69° NNW 03:52:43 10° N
Cosmos 405 Rocket 4.4 03:47:00 10° NNW 03:49:00 24° NW 03:49:00 24° NW
UNK 3.6 03:50:28 51° SSE 03:51:40 89° WSW 03:56:23 10° NNW
Cosmos 2297 Rocket 2.1 03:53:30 10° NNW 03:59:06 64° WSW 04:01:30 34° S
Cosmos 1898 Rocket 3.8 03:56:34 10° NNW 04:01:37 44° WSW 04:01:53 44° WSW
Cosmos 1758 3.5 04:03:14 45° SSE 04:04:19 70° E 04:08:20 10° NNE
UNKNOWN OBJECT B 2.6 04:01:20 10° N 04:05:14 76° WNW 04:05:36 68° SW
Resurs 1-4 Rocket 2.3 04:02:55 10° N 04:08:02 53° WNW 04:09:33 40° WSW
MTI 4.0 04:08:10 53° SE 04:08:47 71° ENE 04:12:03 10° N
Cosmos 1378 3.0 04:05:43 10° NNW 04:09:29 69° W 04:09:46 65° SW
Cosmos 841 Rocket 3.6 04:08:27 42° SW 04:09:58 58° WNW 04:15:11 10° N
Cosmos 1953 2.2 04:09:14 49° S 04:10:18 88° E 04:14:22 10° N
SL-16 R/B 3.7 04:07:25 10° SSE 04:12:18 32° ESE 04:17:16 10° NE
EO 1 Del DPAF 3.3 04:13:19 55° WSW 04:13:36 56° WSW 04:17:25 10° NNW
Cosmos 1634 Rocket 3.9 04:11:17 25° S 04:15:06 83° W 04:21:25 10° N
Cosmos 1937 Rocket 3.7 04:11:03 10° NNW 04:15:59 46° WSW 04:17:36 35° SSW
Cosmos 1763 Rocket 4.0 04:16:14 34° WSW 04:17:43 42° WNW 04:22:40 10° N
Meteor 1-24 Rocket 4.1 04:13:13 10° NNW 04:18:41 46° W 04:21:15 29° SSW
Cosmos 1437 3.9 04:19:06 10° N 04:22:19 45° E 04:25:31 10° SSE
Cosmos 1805 3.1 04:21:15 42° SSW 04:22:27 72° W 04:26:22 10° N
ARIANE 5 R/B 3.7 04:20:12 10° NNW 04:24:27 27° WNW 04:25:48 24° W
Cosmos 2195 Rocket 4.5 04:20:44 10° N 04:26:52 82° E 04:32:58 10° S
NOSS 3-4 (A) 3.8 04:20:09 10° NW 04:27:13 71° WSW 04:34:40 10° SSE
NOSS 3-4 (C) 3.8 04:20:15 10° NW 04:27:22 72° WSW 04:34:51 10° SSE
CZ-2D R/B 3.7 04:23:11 10° N 04:27:27 57° WNW 04:29:17 32° SW
PAYLOAD B 4.4 04:21:54 10° NNE 04:27:31 74° ESE 04:32:21 14° S
Cosmos 1441 Rocket 3.5 04:24:21 10° NNW 04:28:12 49° W 04:29:28 35° SW
ATLAS CENTAUR R/B 3.5 04:27:01 17° W 04:28:52 21° NW 04:32:37 10° N
GPS 2-04 Rocket1 2.8 04:28:13 26° WNW 04:30:16 68° N 04:34:03 10° E
Cosmos 1092 Rocket 4.2 04:26:50 10° NNW 04:32:56 54° W 04:38:12 14° SSW
Cosmos 1733 4.5 04:30:55 10° SSE 04:34:27 39° E 04:38:00 10° NNE
CZ-4B R/B 3.2 04:30:37 10° NNE 04:36:11 85° ESE 04:41:03 13° SSW
Cosmos 1627 Rocket 4.4 04:31:32 10° N 04:37:50 82° W 04:44:02 10° S
Thor Agena Rocket 4.0 04:33:14 10° SSE 04:38:11 60° ENE 04:43:09 10° N
MOZ.5/SAFIR/RUBIN 5/SL-8 3.8 04:34:56 10° SSE 04:39:40 85° ENE 04:44:22 10° N
Cosmos 2227 4.4 04:38:55 10° NNW 04:44:42 76° ENE 04:50:26 10° SSE
RESURS DK-1 4.5 04:41:05 10° N 04:44:46 30° ENE 04:48:25 10° SE
Aureole 1 Rocket 3.9 04:41:09 14° SSW 04:45:50 84° ESE 04:52:55 10° NNE
Milstar 3 Cent rocket 3.0 04:45:39 19° WSW 04:49:39 55° S 04:59:24 10° ESE
ASTRO E2 3.3 04:48:09 23° WSW 04:50:05 38° SSW 04:53:51 10° SE
Cosmos 540 Rocket 3.5 04:46:37 18° SSW 04:50:29 66° WNW 04:55:39 10° N
Meteor 1-21 Rocket 4.3 04:46:40 10° NNW 04:52:32 65° W 04:58:22 10° S
Cosmos 1500 Rocket 3.5 04:49:20 10° N 04:53:44 81° W 04:58:05 10° S
Okean O Rocket 2.2 04:52:28 10° N 04:56:33 39° WNW 04:59:36 16° SW
Cosmos 332 Rocket 3.9 04:53:41 16° SSW 04:57:22 59° WNW 05:02:09 10° N
Cosmos 1743 Rocket 3.8 04:53:58 10° NNW 04:58:07 45° W 05:02:16 10° SSW
SL-24 R/B - RUBIN 2 4.3 04:54:24 15° SSW 04:59:00 79° WNW 05:05:17 10° NNE
Cosmos 2151 3.9 04:56:33 10° N 05:00:46 52° E 05:04:57 10° SSE
ISS -2.9 04:58:07 10° NW 05:01:22 64° NE 05:04:35 10° SE
CZ-2D R/B 3.8 04:58:17 10° NNW 05:01:46 18° WNW 05:04:39 12° W
Cosmos 1428 Rocket 4.5 04:56:09 10° N 05:02:19 88° E 05:08:25 10° S
BREEZE-M DEB (TANK) 4.3 04:46:31 12° SW 05:04:01 77° SE 05:08:33 10° NE
Cosmos 1544 3.9 05:02:05 17° SW 05:04:18 32° W 05:07:37 10° NNW
Cosmos 1697 Rocket 4.4 05:03:07 11° W 05:06:28 17° WNW 05:10:07 10° NNW
CZ-4B R/B 3.4 05:07:22 10° N 05:10:59 37° WNW 05:14:16 11° SW
Cosmos 2279 Rocket 4.3 05:05:36 10° SSW 05:11:37 49° W 05:17:40 10° N
SL-16 R/B 3.9 05:08:53 13° WSW 05:11:37 17° W 05:15:24 10° NW
CSL-04 DEB 4.4 05:09:26 10° NNE 05:13:23 83° ESE 05:17:19 10° SSW
Cosmos 1674 2.7 05:10:07 10° NNW 05:13:49 57° W 05:17:29 10° S
Cosmos 1980 Rocket 3.5 05:09:52 12° WSW 05:13:50 24° WNW 05:18:23 10° N
Cosmos 2360 Rocket 3.4 05:09:03 10° S 05:14:15 41° ESE 05:19:30 10° NE
Cosmos 1470 3.4 05:13:37 10° SSW 05:17:15 37° W 05:20:57 10° NNW
Cosmos 371 Rocket 3.5 05:13:22 10° SSW 05:18:05 55° WNW 05:22:49 10° N
Cosmos 2221 2.6 05:15:12 10° S 05:19:27 85° E 05:23:45 10° N
ADEOS II 2.2 05:15:35 10° NNE 05:20:52 84° ESE 05:26:08 10° SSW
Cosmos 2322 Rocket 2.5 05:18:40 10° SW 05:24:08 52° WNW 05:29:36 10° N
DELTA 2 R/B (1) 3.9 05:19:49 10° SW 05:25:18 61° SSE 05:30:49 10° ENE
CZ-3 Stage 3 3.5 05:11:08 10° W 05:35:19 59° SSW 05:40:06 10° SE
